CAPE
0 1 0 7 10 21 38 0 80 31 4 0 3 23 3 0 0 0 0 0 0 0 0 0 0 0 0 0 1 2 0 2 4 5 6 6 7 6 8 9 12 11 5 6
9 0 4 0 0 6 12 0 22 11 0 24 5 0 0 0 0 0 0 0 0 0 0 0 0 0 0 0 0 0 0 1 3 4 5 5 7 6 9 9 12 24 20 15
5 7 9 2 11 8 6 15 39 24 3 0 0 0 0 0 0 0 0 0 0 0 0 0 0 0 0 0 0 0 0 0 1 2 4 5 6 7 7 17 14 18 22 23
36 27 42 1 0 8 59 65 19 0 0 0 0 0 0 0 0 0 0 0 0 0 0 0 0 0 0 0 0 0 0 0 0 1 3 5 5 10 13 16 12 14 17 19
55 64 6 0 6 0 0 0 0 0 0 0 0 0 0 0 0 0 1 0 0 0 0 0 0 0 0 0 0 0 0 0 0 0 2 5 7 10 12 10 11 16 8 9
60 40 18 0 0 0 0 0 0 0 0 0 0 0 41 0 0 0 0 0 0 0 0 0 0 0 0 0 0 0 0 0 0 0 0 3 9 8 12 16 15 22 12 7
53 41 17 10 5 0 15 16 0 0 0 0 0 0 1 0 0 0 1 0 2 0 0 0 0 0 0 0 1 2 1 1 2 1 2 2 5 8 6 7 7 17 14 20
40 84 13 16 21 31 38 13 0 0 3 0 0 1 1 3 1 2 1 2 3 2 3 3 1 0 0 0 1 1 1 2 2 4 9 10 8 9 8 9 8 7 8 6
53 63 69 52 61 45 9 2 4 0 3 0 0 4 8 3 2 1 1 3 4 4 3 3 3 0 0 1 1 1 1 1 2 6 10 14 15 14 12 11 11 12 13 15
118 70 86 95 46 2 6 1 0 0 0 0 0 4 5 3 0 0 0 0 0 3 2 3 3 1 1 1 1 0 1 2 4 8 12 12 10 9 10 13 15 14 12 18
35 74 57 16 6 7 1 5 0 0 0 0 0 0 2 1 0 0 0 0 0 0 0 1 3 4 2 2 1 1 1 3 3 4 6 4 5 4 7 8 6 10 12 11
195 92 113 67 67 1 0 7 9 0 0 0 0 0 0 0 0 0 0 0 0 0 0 0 0 0 0 0 0 0 0 0 1 1 1 3 4 3 0 0 0 1 0 2
132 66 21 20 0 0 0 0 0 0 0 0 0 0 0 0 0 0 0 0 0 0 0 0 0 0 0 0 0 0 0 0 0 0 0 0 0 2 4 2 0 0 0 0
17 37 0 0 0 0 0 0 0 0 0 0 0 0 0 0 0 0 0 0 0 0 0 0 0 0 0 0 0 0 0 0 0 0 2 2 3 3 3 6 8 6 0 0
2 0 1 1 0 0 0 0 0 0 0 0 0 0 0 0 0 0 0 0 0 0 0 0 0 0 0 0 0 0 0 1 5 9 8 3 4 3 3 3 4 3 3 1
0 0 0 0 0 0 0 0 0 0 0 0 0 0 0 0 0 0 0 0 0 1 0 0 0 3 0 0 0 1 3 1 4 7 4 5 3 2 1 2 2 2 5 2
0 0 0 0 0 0 0 0 0 0 0 2 1 0 0 0 0 0 0 0 2 8 3 5 6 3 1 4 3 5 7 3 1 5 3 2 1 1 0 1 0 0 3 0
0 0 0 0 0 0 0 0 0 0 1 1 0 0 0 0 2 3 4 8 3 8 7 14 7 3 3 4 3 4 4 2 1 4 1 1 0 0 0 0 0 0 1 0
0 0 0 0 0 0 2 3 2 1 0 0 0 0 2 2 9 10 8 8 9 5 11 7 3 5 5 3 2 4 4 3 1 0 1 0 1 0 1 2 1 1 1 1
0 0 0 0 0 0 1 1 5 1 2 6 3 6 8 13 6 5 7 6 11 6 5 7 4 2 3 2 0 1 5 8 3 4 6 2 5 6 5 0 0 1 3 4
0 0 4 3 1 5 2 1 1 1 2 3 1 2 7 9 6 5 8 14 18 2 2 2 1 1 0 1 0 8 9 10 7 6 5 6 2 2 3 3 3 3 4 4
2 5 11 8 7 4 2 1 3 2 1 1 5 5 7 7 8 10 5 8 5 3 5 3 1 1 1 1 0 11 9 8 8 7 8 8 8 5 3 2 1 3 3 4
2 14 10 14 15 8 1 2 1 1 1 1 1 4 9 8 7 10 8 4 3 2 2 4 3 1 0 12 14 14 8 6 8 8 6 6 4 2 2 3 2 2 2 2
7 9 10 8 4 6 1 1 1 1 1 1 1 4 6 12 13 16 4 1 0 5 11 17 10 1 0 15 18 13 9 10 7 6 5 0 4 1 1 1 0 2 1 0
2 6 4 4 5 6 5 2 3 4 3 2 3 4 5 8 12 14 7 3 1 3 11 2 3 3 19 16 13 9 10 9 7 7 3 3 2 1 2 2 0 1 1 1
2 3 2 2 3 3 4 4 6 5 4 9 4 11 19 18 16 10 7 3 4 5 11 15 15 13 12 11 8 7 8 3 1 2 2 2 1 1 1 0 0 0 2 1
4 1 4 5 5 4 4 3 8 8 14 14 10 15 14 16 15 13 7 7 9 13 13 14 16 11 11 7 7 5 4 3 1 1 2 2 2 3 1 1 1 1 1 1
CIN
0 -15 -1 -1 0 0 0 0 0 -5 0 0 -17 0 -1 0 0 0 0 0 0 0 0 0 0 0 0 0 0 0 0 0 0 0 0 0 0 0 0 0 0 0 0 0
-52 0 -5 -1 0 0 -2 0 -24 -41 0 -27 -8 0 0 0 0 0 0 0 0 0 0 0 0 0 0 0 0 0 0 0 0 0 0 0 0 0 0 0 0 0 0 0
0 -1 0 0 -20 -32 -47 -26 -5 -2 -20 0 0 0 0 0 0 0 0 0 0 0 0 0 0 0 0 0 0 0 0 0 0 0 0 0 0 0 0 0 0 0 0 0
0 -2 0 0 0 -1 -13 -19 -7 0 0 0 0 0 0 0 0 0 0 0 0 0 0 0 0 0 0 0 0 0 0 0 0 0 0 0 0 0 0 0 0 0 0 0
0 0 0 0 0 0 0 0 0 0 0 0 0 0 0 0 0 0 0 0 0 0 0 0 0 0 0 0 0 0 0 0 0 0 0 0 0 0 0 0 0 0 0 0
0 0 0 0 0 0 0 0 0 0 0 0 0 0 -33 0 0 0 0 0 0 0 0 0 0 0 0 0 0 0 0 0 0 0 0 0 0 0 0 0 0 0 0 0
0 0 -2 0 -14 0 -6 -7 0 0 0 0 0 0 0 0 0 0 0 0 0 0 0 0 0 0 0 0 0 0 0 0 0 0 0 0 0 0 0 0 0 0 0 0
0 0 0 -1 -15 -12 -4 -13 0 0 -18 0 0 0 0 0 0 0 0 0 0 0 0 0 0 0 0 0 0 0 0 0 0 0 0 0 0 0 0 0 0 0 0 0
0 0 -2 -1 -3 -19 -20 -1 -1 0 -6 0 0 0 0 0 0 0 0 0 0 0 0 0 0 0 0 0 0 0 0 0 0 0 0 0 0 0 0 0 0 0 0 0
0 -2 -1 0 -3 -6 0 0 0 0 0 0 0 0 0 0 0 0 0 0 0 0 0 0 0 0 0 0 0 0 0 0 0 0 0 0 0 0 0 0 0 0 0 0
0 -25 0 0 0 -3 0 0 0 0 0 0 0 0 0 0 0 0 0 0 0 0 0 0 0 0 0 0 0 0 0 0 0 0 0 0 0 0 0 0 0 0 0 0
0 0 0 0 -4 -5 0 -7 -9 0 0 0 0 0 0 0 0 0 0 0 0 0 0 0 0 0 0 0 0 0 0 0 0 0 0 0 0 0 0 0 0 0 0 0
0 0 -1 -14 0 0 0 0 0 0 0 0 0 0 0 0 0 0 0 0 0 0 0 0 0 0 0 0 0 0 0 0 0 0 0 0 0 0 0 0 0 0 0 0
0 0 0 0 0 0 0 0 0 0 0 0 0 0 0 0 0 0 0 0 0 0 0 0 0 0 0 0 0 0 0 0 0 0 0 0 0 0 0 0 0 0 0 0
-10 0 -4 0 0 0 0 0 0 0 0 0 0 0 0 0 0 0 0 0 0 0 0 0 0 0 0 0 0 0 0 0 0 0 0 0 0 0 0 0 0 0 0 0
0 0 0 0 0 0 0 0 0 0 0 0 0 0 0 0 0 0 0 0 0 0 0 0 0 0 0 0 0 0 0 0 0 0 0 0 0 0 0 0 0 0 0 0
0 0 0 0 0 0 0 0 0 0 0 0 0 0 0 0 0 0 0 0 0 0 0 0 0 0 -1 0 0 0 0 0 0 0 0 0 0 0 0 0 0 0 0 0
0 0 0 0 0 0 0 0 0 0 0 -1 -5 0 0 0 0 0 0 0 0 0 0 0 0 0 0 0 0 0 0 0 0 0 0 0 0 0 0 0 0 0 0 0
0 0 0 0 0 0 0 0 0 0 0 0 0 0 0 0 0 0 0 0 0 0 0 0 0 0 0 0 0 0 0 0 0 0 0 0 0 0 0 0 0 0 0 0
0 0 0 0 0 0 0 -1 0 0 0 0 0 0 0 0 0 0 0 0 0 0 0 0 0 0 0 0 0 0 0 0 0 0 0 0 0 0 0 0 0 0 0 0
0 0 0 0 0 0 0 0 0 0 0 0 0 0 0 0 0 0 0 0 0 0 0 0 0 0 0 0 0 0 0 0 0 0 0 0 0 0 0 0 0 0 0 0
0 0 0 0 0 0 0 0 0 0 0 0 0 0 0 0 0 0 0 0 0 0 0 0 0 0 0 0 0 0 0 0 0 0 0 0 0 0 0 0 0 0 0 0
0 0 0 0 0 0 0 0 0 0 0 0 0 0 0 0 0 0 0 0 0 0 0 0 0 0 0 0 0 0 0 0 0 0 0 0 0 0 0 0 0 0 0 0
0 0 0 0 0 0 0 0 0 0 0 0 0 0 0 0 0 0 0 0 0 0 0 0 0 0 0 0 0 0 0 0 0 0 0 0 0 0 0 0 0 0 0 0
0 0 0 0 0 0 0 0 0 0 0 0 0 0 0 0 0 0 0 0 0 0 0 0 0 0 0 0 0 0 0 0 0 0 0 0 0 0 0 0 0 0 0 0
0 0 0 0 0 0 0 0 0 0 0 0 0 0 0 0 0 0 0 0 0 0 0 0 0 0 0 0 0 0 0 0 0 0 0 0 0 0 0 0 0 0 0 0
0 0 0 0 0 0 0 0 0 0 0 0 0 0 0 0 0 0 0 0 0 0 0 0 0 0 0 0 0 0 0 0 0 0 0 0 0 0 0 0 0 0 0 0
Wind_Speed
7 9 11 12 11 13 14 17 17 17 20 22 21 19 17 11 6 6 12 11 10 9 8 7 6 5 5 4 4 5 6 7 8 9 9 10 11 13 13 14 15 17 17 18
4 11 13 14 16 15 15 19 18 20 26 21 20 5 6 7 7 8 11 12 12 10 9 7 7 6 5 5 3 5 6 7 8 9 9 10 11 11 12 14 14 14 15 16
8 15 10 12 13 18 20 22 18 20 20 16 12 14 9 6 5 8 11 12 12 11 9 7 7 6 5 6 5 4 6 6 8 8 8 9 10 11 11 12 13 14 14 14
5 5 12 13 4 9 15 17 15 16 17 16 9 4 2 3 8 9 11 13 13 11 9 8 8 7 6 6 6 5 5 6 7 7 8 8 9 9 10 11 13 13 14 15
8 11 13 17 13 11 10 13 11 15 16 11 6 2 9 5 5 7 11 12 8 10 10 8 8 7 6 5 5 6 6 6 7 7 7 8 8 9 9 9 11 12 12 14
9 11 14 15 5 5 2 12 7 3 6 3 3 7 4 7 8 10 10 9 9 8 10 8 4 7 5 6 6 6 5 6 7 8 8 8 8 8 8 7 9 8 11 12
14 14 14 13 13 7 7 3 5 2 1 4 6 4 6 9 10 13 11 11 10 5 9 8 6 7 8 6 7 5 5 6 7 7 8 8 7 6 7 8 8 8 9 10
13 16 20 8 14 9 3 2 5 5 5 4 8 6 7 8 12 13 13 13 11 9 9 8 8 8 8 8 6 6 6 6 6 6 6 6 7 7 8 6 8 8 9 10
11 10 5 5 9 10 4 7 5 6 5 8 9 8 11 12 13 14 14 13 12 10 11 9 8 8 9 8 7 6 6 6 6 5 5 5 6 6 5 7 7 7 7 8
13 12 10 9 10 10 8 8 8 6 6 10 8 12 12 12 13 14 15 15 14 13 12 11 9 9 9 9 7 7 6 6 4 5 5 4 6 7 8 7 6 7 8 8
15 12 13 13 10 11 12 9 8 6 7 9 10 12 13 13 15 14 15 15 14 14 13 13 12 10 10 10 9 7 6 5 5 4 6 7 9 8 7 9 11 8 9 8
9 9 10 10 2 1 5 10 10 10 9 9 11 11 14 13 14 15 15 15 15 15 14 14 14 13 12 11 10 8 7 6 4 4 4 5 7 7 11 11 12 15 15 12
14 15 13 3 4 3 6 5 6 9 9 9 10 10 14 13 14 14 15 16 15 15 14 15 14 14 13 12 11 9 7 6 5 4 4 3 2 2 7 6 9 11 11 13
15 10 10 9 6 7 5 4 3 6 6 6 8 9 11 12 13 15 15 15 15 14 14 14 14 13 12 12 10 7 6 4 4 3 3 3 3 3 2 2 1 5 9 7
11 11 9 1 6 7 6 6 6 7 6 6 7 8 10 12 13 13 13 14 13 14 14 14 13 12 11 11 10 9 7 6 4 4 3 3 2 2 2 2 2 3 3 3
12 9 7 8 8 7 8 7 8 6 6 6 7 8 10 11 11 12 13 14 14 12 13 12 12 12 11 12 11 8 6 8 6 5 4 3 2 1 2 1 1 2 4 6
9 11 10 9 9 8 7 6 5 5 5 6 7 7 9 10 10 11 11 10 8 9 10 11 11 10 9 9 10 7 7 6 5 4 3 3 2 2 1 1 2 3 4 5
8 3 8 7 7 6 4 3 3 3 4 4 5 5 5 9 10 10 11 11 9 10 10 10 11 10 9 10 8 7 7 6 5 4 4 3 2 2 2 2 2 2 2 6
6 6 5 3 2 4 5 5 3 5 7 7 7 7 6 8 9 12 12 11 11 12 11 11 14 13 12 11 8 6 6 6 5 4 3 5 3 2 2 1 1 2 2 2
7 7 7 8 8 6 7 8 7 6 6 6 7 8 9 9 11 12 12 11 10 8 13 13 14 12 11 11 8 6 7 6 6 5 4 4 3 3 3 2 2 1 2 3
8 9 9 8 8 7 6 7 7 7 7 7 8 8 8 10 10 11 12 9 9 12 12 15 11 9 9 10 8 6 6 5 5 5 4 4 3 3 2 2 1 0 1 2
7 7 7 7 6 7 6 6 7 8 8 8 7 8 10 10 10 10 8 8 9 14 11 10 9 12 10 12 7 7 6 6 5 4 4 3 3 3 3 2 1 0 1 1
7 5 6 6 6 8 7 7 7 7 8 8 9 10 10 9 9 9 8 9 9 12 9 8 10 13 14 8 7 6 6 5 5 4 3 3 3 3 2 3 1 1 1 1
6 5 6 6 7 7 7 6 7 7 7 7 8 9 9 8 7 5 8 12 14 13 9 9 12 14 13 6 6 6 6 5 4 4 4 3 3 2 2 3 3 1 1 2
5 6 6 6 6 5 7 8 7 7 8 8 8 8 7 6 7 8 9 9 16 13 9 14 15 15 7 6 6 6 5 5 5 5 5 4 3 3 3 3 2 2 1 2
6 5 5 5 3 5 6 6 5 6 6 6 6 6 6 5 7 8 8 11 12 12 9 9 9 8 7 7 7 6 6 6 5 4 4 3 3 3 3 2 2 3 2 2
4 3 5 5 4 4 5 5 5 6 6 7 7 7 7 7 9 10 11 11 10 9 9 9 9 8 8 8 7 6 6 5 5 5 4 4 3 3 3 3 2 2 2 2
Wind_Direction
276 296 236 243 242 234 233 251 256 272 272 276 288 295 306 323 300 220 175 181 195 196 182 163 154 150 130 95 46 25 31 24 24 22 17 24 25 30 25 34 26 23 30 28
323 282 280 273 267 269 249 244 253 265 273 282 276 332 297 288 283 238 187 189 192 190 184 161 154 148 125 103 87 68 47 36 31 30 23 29 28 36 33 29 34 26 31 33
248 263 244 261 250 243 250 253 255 261 271 290 299 297 275 267 247 234 201 190 186 187 174 160 148 149 133 128 104 86 80 52 46 34 26 30 34 33 37 36 32 33 29 36
242 211 234 250 245 253 237 254 251 261 275 289 312 19 1 274 260 210 197 180 179 173 161 162 154 136 133 136 126 95 67 74 63 49 35 31 36 41 39 40 38 35 30 32
230 220 257 266 228 205 221 252 247 266 281 281 73 316 230 197 216 188 177 163 153 155 159 158 140 140 136 124 106 95 71 57 64 75 57 42 36 43 41 46 46 44 41 29
233 239 259 268 82 93 174 271 223 284 290 262 170 264 90 160 163 117 92 121 134 150 159 122 137 124 86 104 90 78 55 57 58 54 66 50 39 45 42 41 45 47 46 49
235 249 257 269 144 154 230 299 128 167 182 202 211 16 138 149 141 126 119 123 138 126 124 143 127 129 125 120 103 84 65 70 59 59 65 53 45 37 48 46 43 43 46 49
233 245 249 230 138 214 259 163 169 195 178 131 122 133 126 113 128 149 151 150 155 144 146 149 148 143 135 125 121 108 101 90 79 70 67 57 59 50 34 29 46 49 41 40
222 231 256 179 195 210 288 284 215 262 189 160 150 160 160 164 169 166 164 162 163 154 151 157 162 158 145 141 135 125 110 101 88 79 70 53 54 41 55 44 33 40 40 40
251 264 249 233 250 270 260 245 274 249 216 179 179 165 174 181 180 174 173 170 166 161 160 162 166 161 146 152 143 144 134 123 109 95 89 60 73 50 36 23 41 43 35 31
250 266 263 271 272 289 280 232 261 251 235 202 179 184 180 188 186 180 177 175 174 176 170 166 166 158 155 155 156 156 146 145 138 118 95 81 58 31 75 53 33 33 15 51
231 233 234 260 240 255 253 261 235 225 222 221 198 188 186 192 188 182 178 178 179 179 173 168 166 165 164 166 167 166 159 170 151 142 148 133 127 104 71 71 66 53 49 37
257 276 289 284 211 215 244 232 222 223 221 213 207 192 193 193 188 181 180 182 185 180 175 170 169 167 168 173 172 176 169 148 142 169 149 128 131 139 141 115 92 84 62 46
254 258 249 225 244 203 217 215 186 221 217 221 200 198 189 194 176 186 186 184 184 178 172 173 171 167 166 168 172 160 139 109 151 133 126 125 98 84 51 49 146 127 97 66
245 221 249 316 201 199 205 192 199 204 200 208 201 198 187 195 183 189 184 177 177 173 169 171 169 161 164 161 152 154 154 155 138 130 98 95 115 99 71 73 42 38 46 62
226 223 212 219 218 199 207 207 222 210 190 202 199 199 196 192 174 179 172 172 175 176 169 168 160 164 164 157 156 151 147 132 150 141 161 146 134 125 105 71 50 35 46 23
178 196 207 212 213 206 210 221 229 233 200 202 198 189 186 172 160 167 165 157 162 158 161 157 154 157 151 151 157 153 144 155 152 151 146 138 131 109 88 65 35 32 76 76
193 171 195 214 206 195 189 186 188 195 187 162 98 99 117 152 171 159 152 153 163 153 163 158 149 148 147 154 168 154 153 150 176 153 142 160 128 106 91 74 49 25 35 122
165 150 121 117 99 135 153 162 151 98 95 112 128 150 151 155 157 157 148 155 155 161 163 151 156 160 160 168 170 157 158 160 156 153 141 118 167 149 149 140 89 41 13 15
126 116 115 93 62 99 93 83 105 130 133 140 147 152 157 158 144 147 153 162 169 171 145 156 164 162 160 161 174 163 164 166 161 153 166 171 171 174 117 48 357 347 359 10
91 92 102 101 98 92 112 135 139 140 146 148 161 162 155 147 152 156 159 163 150 138 156 162 166 157 160 161 181 159 166 164 156 164 160 192 139 194 184 173 179 337 356 344
122 116 116 114 114 115 121 131 132 138 146 153 143 143 141 150 154 163 167 162 144 159 158 169 171 165 163 163 180 164 166 169 166 165 169 185 189 183 185 181 220 290 299 312
135 118 120 133 144 126 128 131 137 143 149 154 156 160 169 157 163 157 154 140 148 167 167 165 164 162 147 178 160 159 161 157 167 174 166 176 178 184 190 195 186 217 287 313
123 128 123 120 127 138 144 141 138 140 142 147 160 171 158 155 154 155 134 151 151 162 168 155 150 151 169 150 154 151 151 158 149 161 154 164 167 155 182 152 215 216 174 199
137 131 141 152 155 160 134 150 137 140 147 146 152 164 169 169 169 148 142 153 158 170 144 147 156 168 156 149 144 150 153 156 159 160 166 177 172 182 184 170 214 235 178 244
157 163 157 167 153 151 153 168 156 156 157 149 153 160 158 138 133 138 149 148 160 160 142 150 162 165 148 144 143 149 151 124 153 165 163 160 173 187 183 200 192 211 227 284
144 155 146 149 153 150 155 167 160 162 169 163 156 159 157 155 150 149 147 153 159 152 148 160 163 154 143 145 144 145 144 155 151 155 171 173 188 182 180 202 213 235 254 249